| time (UTC) | temp F | wind direction | speed MPH | gust MPH | rain 1hr in | rain 24hr in | rain mn in | humidity % | barometer mb |
| 20260902111302 | 62 | 152 | 9.0 | 16.0 | 0.00 | 0.00 | 0.00 | 86 | 1007.4 |
| 20260902110801 | 62 | 134 | 6.0 | 16.0 | 0.00 | 0.00 | 0.00 | 86 | 1007.5 |
| 20260902110300 | 62 | 138 | 5.0 | 16.0 | 0.00 | 0.00 | 0.00 | 86 | 1007.6 |
| 20260902105800 | 62 | 148 | 7.0 | 15.0 | 0.00 | 0.00 | 0.00 | 86 | 1007.6 |
| 20260902105258 | 61 | 163 | 4.0 | 15.0 | 0.00 | 0.00 | 0.00 | 86 | 1007.8 |
| 20260902104757 | 61 | 169 | 7.0 | 15.0 | 0.00 | 0.00 | 0.00 | 87 | 1007.9 |
| 20260902104256 | 61 | 175 | 9.0 | 15.0 | 0.00 | 0.00 | 0.00 | 87 | 1007.9 |
| 20260902103254 | 61 | 189 | 7.0 | 15.0 | 0.00 | 0.00 | 0.00 | 87 | 1008.0 |
| 20260902102753 | 61 | 173 | 7.0 | 15.0 | 0.00 | 0.00 | 0.00 | 87 | 1008.0 |
| 20260902102252 | 61 | 177 | 7.0 | 15.0 | 0.00 | 0.00 | 0.00 | 87 | 1008.1 |
| 20260902101250 | 61 | 158 | 7.0 | 12.0 | 0.00 | 0.00 | 0.00 | 87 | 1008.2 |
| 20260902100749 | 61 | 166 | 6.0 | 12.0 | 0.00 | 0.00 | 0.00 | 88 | 1008.2 |
| 20260902095246 | 61 | 177 | 7.0 | 16.0 | 0.00 | 0.00 | 0.00 | 88 | 1008.6 |
| 20260902094745 | 61 | 175 | 8.0 | 16.0 | 0.00 | 0.00 | 0.00 | 88 | 1008.6 |
| 20260902093242 | 61 | 161 | 9.0 | 15.0 | 0.00 | 0.00 | 0.00 | 89 | 1008.7 |
| 20260902091739 | 61 | 177 | 12.0 | 23.0 | 0.00 | 0.00 | 0.00 | 89 | 1008.8 |
| 20260902091238 | 61 | 175 | 14.0 | 23.0 | 0.00 | 0.00 | 0.00 | 89 | 1008.9 |
| 20260902090236 | 61 | 203 | 15.0 | 21.0 | 0.00 | 0.00 | 0.00 | 89 | 1008.9 |
| 20260902085736 | 61 | 189 | 14.0 | 20.0 | 0.00 | 0.00 | 0.00 | 89 | 1009.0 |
| 20260902085234 | 61 | 177 | 15.0 | 20.0 | 0.00 | 0.00 | 0.00 | 89 | 1009.0 |
| 20260902084733 | 61 | 170 | 12.0 | 20.0 | 0.00 | 0.00 | 0.00 | 89 | 1009.1 |
| 20260902084232 | 61 | 173 | 12.0 | 18.0 | 0.00 | 0.00 | 0.00 | 89 | 1009.2 |
| 20260902083230 | 61 | 182 | 10.0 | 16.0 | 0.00 | 0.00 | 0.00 | 89 | 1009.2 |
| 20260902082729 | 61 | 177 | 8.0 | 16.0 | 0.00 | 0.00 | 0.00 | 89 | 1009.3 |
| 20260902082228 | 61 | 191 | 8.0 | 16.0 | 0.00 | 0.00 | 0.00 | 89 | 1009.3 |
| 20260902081226 | 61 | 190 | 12.0 | 21.0 | 0.00 | 0.00 | 0.00 | 88 | 1009.3 |
| 20260902080725 | 61 | 184 | 8.0 | 21.0 | 0.00 | 0.00 | 0.00 | 88 | 1009.3 |
| 20260902080224 | 62 | 187 | 12.0 | 21.0 | 0.00 | 0.00 | 0.00 | 88 | 1009.4 |
| 20260902075723 | 62 | 176 | 15.0 | 18.0 | 0.00 | 0.00 | 0.00 | 88 | 1009.4 |
| 20260902075222 | 62 | 179 | 10.0 | 18.0 | 0.00 | 0.00 | 0.00 | 88 | 1009.5 |
| 20260902074220 | 62 | 184 | 10.0 | 15.0 | 0.00 | 0.00 | 0.00 | 87 | 1009.7 |
| 20260902073718 | 62 | 180 | 8.0 | 13.0 | 0.00 | 0.00 | 0.00 | 87 | 1009.7 |
| 20260902073217 | 62 | 176 | 8.0 | 19.0 | 0.00 | 0.00 | 0.00 | 87 | 1009.8 |
| 20260902071714 | 62 | 183 | 8.0 | 17.0 | 0.00 | 0.00 | 0.00 | 87 | 1009.9 |
| 20260902070713 | 62 | 175 | 10.0 | 18.0 | 0.00 | 0.00 | 0.00 | 87 | 1010.0 |
| 20260902070212 | 62 | 159 | 8.0 | 18.0 | 0.00 | 0.00 | 0.00 | 87 | 1010.0 |
| 20260902065712 | 62 | 159 | 4.0 | 18.0 | 0.00 | 0.00 | 0.00 | 87 | 1009.9 |
| 20260902065210 | 62 | 163 | 11.0 | 18.0 | 0.00 | 0.00 | 0.00 | 87 | 1009.9 |
| 20260902064708 | 62 | 149 | 8.0 | 17.0 | 0.00 | 0.00 | 0.00 | 87 | 1009.9 |
| 20260902064207 | 62 | 169 | 6.0 | 17.0 | 0.00 | 0.00 | 0.00 | 88 | 1010.0 |
| 20260902063706 | 62 | 173 | 6.0 | 16.0 | 0.00 | 0.00 | 0.00 | 88 | 1009.9 |
| 20260902063207 | 62 | 173 | 7.0 | 18.0 | 0.00 | 0.00 | 0.00 | 87 | 1009.9 |
| 20260902062705 | 62 | 165 | 7.0 | 18.0 | 0.00 | 0.00 | 0.00 | 88 | 1009.9 |
| 20260902062204 | 62 | 154 | 9.0 | 18.0 | 0.00 | 0.00 | 0.00 | 88 | 1010.0 |
| 20260902061202 | 62 | 170 | 9.0 | 13.0 | 0.00 | 0.00 | 0.00 | 88 | 1010.1 |
| 20260902060700 | 62 | 184 | 4.0 | 20.0 | 0.00 | 0.00 | 0.00 | 89 | 1010.1 |
| 20260902060159 | 62 | 182 | 7.0 | 20.0 | 0.00 | 0.00 | 0.00 | 89 | 1010.2 |
| 20260902055703 | 62 | 161 | 8.0 | 20.0 | 0.00 | 0.00 | 0.00 | 89 | 1010.3 |
| 20260902055658 | 62 | 161 | 8.0 | 20.0 | 0.00 | 0.00 | 0.00 | 89 | 1010.3 |
| 20260902055157 | 62 | 170 | 10.0 | 15.0 | 0.00 | 0.00 | 0.00 | 89 | 1010.3 |
| 20260902054656 | 62 | 176 | 4.0 | 15.0 | 0.00 | 0.00 | 0.00 | 89 | 1010.4 |
| 20260902054155 | 62 | 177 | 5.0 | 15.0 | 0.00 | 0.00 | 0.00 | 90 | 1010.4 |
| 20260902053154 | 62 | 137 | 7.0 | 8.0 | 0.00 | 0.00 | 0.00 | 1010.4 | |
| 20260902052653 | 62 | 162 | 4.0 | 18.0 | 0.00 | 0.00 | 0.00 | 90 | 1010.4 |
| 20260902051651 | 62 | 169 | 6.0 | 18.0 | 0.00 | 0.00 | 0.00 | 90 | 1010.3 |
| 20260902051150 | 62 | 182 | 7.0 | 15.0 | 0.00 | 0.00 | 0.00 | 90 | 1010.4 |
| 20260902050649 | 62 | 194 | 7.0 | 15.0 | 0.00 | 0.00 | 0.00 | 90 | 1010.4 |
| 20260902050148 | 62 | 168 | 6.0 | 13.0 | 0.00 | 0.00 | 0.00 | 90 | 1010.5 |
| 20260902044144 | 61 | 176 | 7.0 | 15.0 | 0.00 | 0.00 | 0.00 | 90 | 1010.8 |
| 20260902043643 | 61 | 170 | 9.0 | 13.0 | 0.00 | 0.00 | 0.00 | 90 | 1010.8 |
| 20260902043142 | 62 | 179 | 9.0 | 14.0 | 0.00 | 0.00 | 0.00 | 90 | 1010.8 |
| 20260902042140 | 62 | 197 | 6.0 | 14.0 | 0.00 | 0.00 | 0.00 | 90 | 1010.8 |
| 20260902041639 | 61 | 166 | 10.0 | 12.0 | 0.00 | 0.00 | 0.00 | 90 | 1010.8 |
| 20260902040136 | 61 | 207 | 8.0 | 20.0 | 0.00 | 0.00 | 0.00 | 90 | 1010.7 |
| 20260902035635 | 62 | 172 | 10.0 | 20.0 | 0.00 | 0.00 | 0.00 | 90 | 1010.8 |
| 20260902034633 | 62 | 193 | 13.0 | 17.0 | 0.00 | 0.00 | 0.00 | 90 | 1010.8 |
| 20260902032128 | 61 | 179 | 4.0 | 10.0 | 0.00 | 0.00 | 0.00 | 90 | 1010.9 |
| 20260902031627 | 61 | 177 | 4.0 | 10.0 | 0.00 | 0.00 | 0.00 | 90 | 1010.8 |
| 20260902031126 | 61 | 187 | 7.0 | 9.0 | 0.00 | 0.00 | 0.00 | 90 | 1010.8 |
| 20260902025623 | 61 | 191 | 7.0 | 11.0 | 0.00 | 0.00 | 0.00 | 89 | 1010.9 |
| 20260902025122 | 62 | 168 | 8.0 | 12.0 | 0.00 | 0.00 | 0.00 | 89 | 1010.9 |
| 20260902024120 | 62 | 210 | 8.0 | 12.0 | 0.00 | 0.00 | 0.00 | 89 | 1010.9 |
| 20260902023619 | 62 | 187 | 8.0 | 12.0 | 0.00 | 0.00 | 0.00 | 89 | 1010.9 |
| 20260902023118 | 62 | 197 | 9.0 | 12.0 | 0.00 | 0.00 | 0.00 | 89 | 1010.9 |
| 20260902022617 | 62 | 200 | 9.0 | 18.0 | 0.00 | 0.00 | 0.00 | 89 | 1010.8 |
| 20260902021615 | 62 | 196 | 14.0 | 18.0 | 0.00 | 0.00 | 0.00 | 89 | 1010.8 |
| 20260902021114 | 62 | 207 | 11.0 | 17.0 | 0.00 | 0.00 | 0.00 | 88 | 1010.8 |
| 20260902020613 | 63 | 203 | 11.0 | 17.0 | 0.00 | 0.00 | 0.00 | 88 | 1010.8 |
| 20260902020112 | 63 | 201 | 12.0 | 17.0 | 0.00 | 0.00 | 0.00 | 88 | 1010.8 |
| 20260902014609 | 63 | 187 | 9.0 | 12.0 | 0.00 | 0.00 | 0.00 | 1010.7 | |
| 20260902014108 | 63 | 203 | 9.0 | 16.0 | 0.00 | 0.00 | 0.00 | 1010.7 | |
| 20260902013607 | 63 | 198 | 11.0 | 16.0 | 0.00 | 0.00 | 0.00 | 1010.7 | |
| 20260902013106 | 63 | 205 | 11.0 | 16.0 | 0.00 | 0.00 | 0.00 | 1010.7 | |
| 20260902012605 | 63 | 204 | 11.0 | 15.0 | 0.00 | 0.00 | 0.00 | 1010.7 | |
| 20260902012104 | 63 | 196 | 11.0 | 15.0 | 0.00 | 0.00 | 0.00 | 1010.8 | |
| 20260902010601 | 63 | 187 | 11.0 | 17.0 | 0.00 | 0.00 | 0.00 | 1010.7 | |
| 20260902005559 | 63 | 187 | 13.0 | 19.0 | 0.00 | 0.00 | 0.00 | 1010.6 | |
| 20260902005058 | 63 | 198 | 13.0 | 19.0 | 0.00 | 0.00 | 0.00 | 1010.6 | |
| 20260902004557 | 63 | 201 | 13.0 | 21.0 | 0.00 | 0.00 | 0.00 | 87 | 1010.6 |
| 20260902004056 | 63 | 204 | 14.0 | 21.0 | 0.00 | 0.00 | 0.00 | 87 | 1010.6 |
| 20260902003054 | 63 | 191 | 14.0 | 21.0 | 0.00 | 0.00 | 0.00 | 86 | 1010.7 |
| 20260902001551 | 64 | 196 | 15.0 | 22.0 | 0.00 | 0.00 | 0.00 | 1010.9 | |
| 20260901235547 | 65 | 207 | 12.0 | 19.0 | 0.00 | 0.00 | 0.00 | 1010.9 | |
| 20260901235046 | 65 | 180 | 13.0 | 19.0 | 0.00 | 0.00 | 0.00 | 1010.9 | |
| 20260901234045 | 65 | 198 | 13.0 | 16.0 | 0.00 | 0.00 | 0.00 | 1011.0 | |
| 20260901233042 | 65 | 210 | 8.0 | 14.0 | 0.00 | 0.00 | 0.00 | 1011.2 | |
| 20260901232542 | 65 | 203 | 9.0 | 14.0 | 0.00 | 0.00 | 0.00 | 1011.2 | |
| 20260901232040 | 65 | 197 | 11.0 | 16.0 | 0.00 | 0.00 | 0.00 | 1011.2 | |
| 20260901231539 | 66 | 197 | 11.0 | 16.0 | 0.00 | 0.00 | 0.00 | 1011.1 | |
| 20260901230537 | 66 | 198 | 10.0 | 16.0 | 0.00 | 0.00 | 0.00 | 1011.2 | |
| 20260901230036 | 66 | 200 | 10.0 | 14.0 | 0.00 | 0.00 | 0.00 | 1011.1 | |
| 20260901224533 | 66 | 193 | 9.0 | 15.0 | 0.00 | 0.00 | 0.00 | 1011.3 | |
| 20260901224032 | 66 | 180 | 9.0 | 14.0 | 0.00 | 0.00 | 0.00 | 1011.3 | |
| 20260901223531 | 66 | 165 | 8.0 | 14.0 | 0.00 | 0.00 | 0.00 | 1011.2 | |
| 20260901223030 | 66 | 183 | 9.0 | 14.0 | 0.00 | 0.00 | 0.00 | 1011.3 | |
| 20260901222529 | 65 | 201 | 9.0 | 14.0 | 0.00 | 0.00 | 0.00 | 1011.3 | |
| 20260901221527 | 65 | 194 | 10.0 | 14.0 | 0.00 | 0.00 | 0.00 | 1011.3 | |
| 20260901220525 | 65 | 176 | 10.0 | 14.0 | 0.00 | 0.00 | 0.00 | 1011.3 | |
| 20260901220025 | 65 | 179 | 9.0 | 15.0 | 0.00 | 0.00 | 0.00 | 1011.3 | |
| 20260901215523 | 65 | 187 | 10.0 | 15.0 | 0.00 | 0.00 | 0.00 | 1011.3 | |
| 20260901215022 | 65 | 179 | 9.0 | 15.0 | 0.00 | 0.00 | 0.00 | 1011.3 | |
| 20260901213519 | 65 | 179 | 10.0 | 16.0 | 0.00 | 0.00 | 0.00 | 1011.2 | |
| 20260901213018 | 65 | 175 | 11.0 | 14.0 | 0.00 | 0.00 | 0.00 | 1011.2 | |
| 20260901212016 | 65 | 190 | 10.0 | 15.0 | 0.00 | 0.00 | 0.00 | 1011.1 | |
| 20260901211014 | 64 | 214 | 10.0 | 14.0 | 0.00 | 0.00 | 0.00 | 1011.2 | |
| 20260901205511 | 64 | 161 | 8.0 | 13.0 | 0.00 | 0.00 | 0.00 | 1011.1 | |
| 20260901205010 | 65 | 182 | 7.0 | 13.0 | 0.00 | 0.00 | 0.00 | 1011.2 | |
| 20260901204509 | 64 | 183 | 9.0 | 12.0 | 0.00 | 0.00 | 0.00 | 1011.2 | |
| 20260901204008 | 65 | 180 | 8.0 | 12.0 | 0.00 | 0.00 | 0.00 | 1011.2 | |
| 20260901203507 | 64 | 210 | 7.0 | 10.0 | 0.00 | 0.00 | 0.00 | 1011.2 | |
| 20260901203006 | 64 | 190 | 7.0 | 14.0 | 0.00 | 0.00 | 0.00 | 1011.3 | |
| 20260901202505 | 64 | 204 | 8.0 | 14.0 | 0.00 | 0.00 | 0.00 | 1011.2 | |
| 20260901202004 | 64 | 208 | 8.0 | 14.0 | 0.00 | 0.00 | 0.00 | 1011.3 | |
| 20260901201503 | 63 | 203 | 9.0 | 12.0 | 0.00 | 0.00 | 0.00 | 1011.3 | |
| 20260901201002 | 63 | 191 | 9.0 | 12.0 | 0.00 | 0.00 | 0.00 | 1011.3 | |
| 20260901200501 | 63 | 196 | 8.0 | 11.0 | 0.00 | 0.00 | 0.00 | 1011.4 | |
| 20260901195459 | 63 | 180 | 8.0 | 11.0 | 0.00 | 0.00 | 0.00 | 1011.4 | |
| 20260901194958 | 63 | 189 | 7.0 | 10.0 | 0.00 | 0.00 | 0.00 | 1011.4 | |
| 20260901193956 | 62 | 190 | 7.0 | 13.0 | 0.00 | 0.00 | 0.00 | 93 | 1011.4 |
| 20260901193455 | 62 | 203 | 8.0 | 13.0 | 0.00 | 0.00 | 0.00 | 93 | 1011.5 |
| 20260901192453 | 62 | 205 | 9.0 | 16.0 | 0.00 | 0.00 | 0.00 | 93 | 1011.5 |
| 20260901191952 | 62 | 200 | 10.0 | 16.0 | 0.00 | 0.00 | 0.00 | 93 | 1011.5 |
| 20260901191451 | 62 | 204 | 10.0 | 16.0 | 0.00 | 0.00 | 0.00 | 93 | 1011.4 |
| 20260901190950 | 62 | 201 | 11.0 | 16.0 | 0.00 | 0.00 | 0.00 | 93 | 1011.3 |
| 20260901190449 | 62 | 201 | 12.0 | 16.0 | 0.00 | 0.00 | 0.00 | 93 | 1011.3 |
| 20260901185948 | 62 | 191 | 12.0 | 15.0 | 0.00 | 0.00 | 0.00 | 93 | 1011.3 |
| 20260901185447 | 62 | 203 | 12.0 | 16.0 | 0.00 | 0.00 | 0.00 | 93 | 1011.3 |
| 20260901184946 | 61 | 193 | 10.0 | 16.0 | 0.00 | 0.00 | 0.00 | 93 | 1011.4 |
| 20260901184445 | 61 | 183 | 12.0 | 16.0 | 0.00 | 0.00 | 0.00 | 93 | 1011.3 |
| 20260901183944 | 62 | 193 | 11.0 | 17.0 | 0.00 | 0.00 | 0.00 | 93 | 1011.3 |
| 20260901182943 | 62 | 198 | 11.0 | 17.0 | 0.00 | 0.00 | 0.00 | 93 | 1011.2 |
| 20260901182441 | 62 | 193 | 10.0 | 14.0 | 0.00 | 0.00 | 0.00 | 93 | 1011.2 |
| 20260901180938 | 62 | 198 | 9.0 | 15.0 | 0.00 | 0.00 | 0.00 | 93 | 1011.3 |
| 20260901175936 | 63 | 165 | 10.0 | 14.0 | 0.00 | 0.00 | 0.00 | 93 | 1011.3 |
| 20260901175435 | 63 | 215 | 11.0 | 14.0 | 0.00 | 0.00 | 0.00 | 93 | 1011.3 |
| 20260901174934 | 63 | 218 | 9.0 | 14.0 | 0.00 | 0.00 | 0.00 | 93 | 1011.3 |
| 20260901173932 | 63 | 196 | 9.0 | 11.0 | 0.00 | 0.00 | 0.00 | 93 | 1011.2 |
| 20260901173431 | 63 | 198 | 8.0 | 11.0 | 0.00 | 0.00 | 0.00 | 93 | 1011.1 |
| 20260901172930 | 63 | 211 | 8.0 | 10.0 | 0.00 | 0.00 | 0.00 | 93 | 1011.1 |
| 20260901172429 | 63 | 211 | 6.0 | 9.0 | 0.00 | 0.00 | 0.00 | 93 | 1011.0 |
| 20260901171928 | 63 | 203 | 7.0 | 8.0 | 0.00 | 0.00 | 0.00 | 94 | 1011.0 |
| 20260901171427 | 63 | 194 | 7.0 | 7.0 | 0.00 | 0.00 | 0.00 | 94 | 1010.9 |
| 20260901170926 | 62 | 187 | 6.0 | 7.0 | 0.00 | 0.00 | 0.00 | 94 | 1010.9 |
| 20260901170425 | 62 | 205 | 4.0 | 9.0 | 0.00 | 0.00 | 0.00 | 93 | 1011.0 |
| 20260901164421 | 62 | 182 | 7.0 | 10.0 | 0.00 | 0.00 | 0.00 | 93 | 1011.0 |
| 20260901163920 | 62 | 203 | 5.0 | 10.0 | 0.00 | 0.00 | 0.00 | 93 | 1010.9 |
| 20260901163418 | 62 | 212 | 6.0 | 9.0 | 0.00 | 0.00 | 0.00 | 93 | 1011.0 |
| 20260901162416 | 62 | 196 | 7.0 | 11.0 | 0.00 | 0.00 | 0.00 | 93 | 1011.1 |
| 20260901161916 | 62 | 203 | 8.0 | 11.0 | 0.00 | 0.00 | 0.00 | 93 | 1011.2 |
| 20260901161414 | 62 | 196 | 7.0 | 11.0 | 0.00 | 0.00 | 0.00 | 93 | 1011.2 |
| 20260901160504 | 62 | 225 | 7.0 | 9.0 | 0.00 | 0.00 | 0.00 | 93 | 1011.2 |
| 20260901160412 | 62 | 225 | 7.0 | 9.0 | 0.00 | 0.00 | 0.00 | 93 | 1011.2 |
| 20260901155411 | 62 | 179 | 0.0 | 2.0 | 0.00 | 0.00 | 0.00 | 93 | 1011.0 |
| 20260901154911 | 61 | 131 | 1.0 | 5.0 | 0.00 | 0.00 | 0.00 | 93 | 1011.0 |
| 20260901154409 | 61 | 127 | 0.0 | 5.0 | 0.00 | 0.00 | 0.00 | 93 | 1011.1 |
| 20260901153908 | 61 | 130 | 2.0 | 5.0 | 0.00 | 0.00 | 0.00 | 93 | 1011.0 |
| 20260901152905 | 61 | 134 | 3.0 | 4.0 | 0.00 | 0.00 | 0.00 | 93 | 1011.0 |
| 20260901152404 | 60 | 130 | 2.0 | 3.0 | 0.00 | 0.00 | 0.00 | 93 | 1011.1 |
| 20260901151402 | 60 | 198 | 0.0 | 2.0 | 0.00 | 0.00 | 0.00 | 93 | 1011.1 |
| 20260901150902 | 60 | 247 | 1.0 | 2.0 | 0.00 | 0.00 | 0.00 | 93 | 1011.0 |
| 20260901150400 | 60 | 260 | 0.0 | 2.0 | 0.00 | 0.00 | 0.00 | 93 | 1011.1 |
| 20260901144356 | 60 | 0 | 0.0 | 0.0 | 0.00 | 0.00 | 0.00 | 93 | 1010.9 |
| 20260901143855 | 60 | 0 | 0.0 | 0.0 | 0.00 | 0.00 | 0.00 | 93 | 1010.9 |
| 20260901143355 | 60 | 0 | 0.0 | 0.0 | 0.00 | 0.00 | 0.00 | 93 | 1010.9 |
| 20260901142854 | 60 | 0 | 0.0 | 0.0 | 0.00 | 0.00 | 0.00 | 93 | 1010.9 |
| 20260901142352 | 60 | 0 | 0.0 | 0.0 | 0.00 | 0.00 | 0.00 | 1010.8 | |
| 20260901141851 | 60 | 0 | 0.0 | 3.0 | 0.00 | 0.00 | 0.00 | 93 | 1010.7 |
| 20260901141350 | 60 | 239 | 0.0 | 3.0 | 0.00 | 0.00 | 0.00 | 93 | 1010.6 |
| 20260901140348 | 60 | 0 | 2.0 | 2.0 | 0.00 | 0.00 | 0.00 | 93 | 1010.6 |
| 20260901135847 | 60 | 222 | 0.0 | 1.0 | 0.00 | 0.00 | 0.00 | 93 | 1010.6 |
| 20260901135346 | 60 | 218 | 0.0 | 1.0 | 0.00 | 0.00 | 0.00 | 93 | 1010.5 |
| 20260901133844 | 60 | 243 | 0.0 | 8.0 | 0.00 | 0.00 | 0.00 | 93 | 1010.5 |
| 20260901133342 | 60 | 259 | 3.0 | 7.0 | 0.00 | 0.00 | 0.00 | 93 | 1010.4 |
| 20260901132842 | 60 | 145 | 1.0 | 1.0 | 0.00 | 0.00 | 0.00 | 93 | 1010.4 |
| 20260901132340 | 60 | 128 | 0.0 | 1.0 | 0.00 | 0.00 | 0.00 | 93 | 1010.4 |
| 20260901130837 | 60 | 131 | 1.0 | 3.0 | 0.00 | 0.00 | 0.00 | 93 | 1010.3 |
| 20260901130336 | 60 | 130 | 1.0 | 4.0 | 0.00 | 0.00 | 0.00 | 93 | 1010.3 |
| 20260901124834 | 60 | 119 | 2.0 | 3.0 | 0.00 | 0.00 | 0.00 | 93 | 1010.3 |
| 20260901124334 | 60 | 121 | 1.0 | 3.0 | 0.00 | 0.00 | 0.00 | 93 | 1010.4 |
| 20260901123331 | 60 | 120 | 2.0 | 2.0 | 0.00 | 0.00 | 0.00 | 93 | 1010.4 |
| 20260901122830 | 60 | 0 | 2.0 | 2.0 | 0.00 | 0.00 | 0.00 | 93 | 1010.4 |
| 20260901122328 | 60 | 0 | 0.0 | 1.0 | 0.00 | 0.00 | 0.00 | 93 | 1010.4 |
| 20260901121828 | 60 | 169 | 0.0 | 1.0 | 0.00 | 0.00 | 0.00 | 93 | 1010.4 |
| 20260901120825 | 60 | 182 | 2.0 | 3.0 | 0.00 | 0.00 | 0.00 | 93 | 1010.5 |
| 20260901120324 | 60 | 161 | 1.0 | 3.0 | 0.00 | 0.00 | 0.00 | 93 | 1010.5 |
| 20260901115322 | 60 | 130 | 1.0 | 2.0 | 0.00 | 0.00 | 0.00 | 92 | 1010.4 |
| 20260901114320 | 60 | 158 | 0.0 | 5.0 | 0.00 | 0.00 | 0.00 | 92 | 1010.6 |
| 20260901113819 | 60 | 169 | 0.0 | 5.0 | 0.00 | 0.00 | 0.00 | 92 | 1010.5 |
| 20260901113318 | 60 | 187 | 3.0 | 5.0 | 0.00 | 0.00 | 0.00 | 92 | 1010.6 |
| 20260901112316 | 60 | 180 | 3.0 | 10.0 | 0.00 | 0.00 | 0.00 | 92 | 1010.6 |